User: anonymous   Login
Location: Vancouver
(49.2500°N, 123.1330°W)
Time: 21:59:25
(UTC-08:00)
Language:

Cosmos 1864 Rocket - Orbit

View from above orbital plane
View from above orbital plane
View from above satellite
View from above satellite

Ground track
Ground track

The orbit data is extracted from the following two-line orbital elements,

1 18161U 87057B   17058.82896126  .00000067  00000-0  52472-4 0  9994
2 18161  82.9368 153.3313 0029861 258.7595 237.9355 13.76958999469178
Epoch (UTC): 27 February 2017 19:53:42
Eccentricity: 0.0029861
inclination: 82.9368°
perigee height: 953 km
apogee height: 996 km
right ascension of ascending node: 153.3313°
argument of perigee: 258.7595°
revolutions per day: 13.76958999
mean anomaly at epoch: 237.9355°
orbit number at epoch: 46917

The dashed part of the orbit path shows where the satellite is in the earth's shadow,  

DLR